Time,TemperatureF,DewpointF,PressureIn,WindDirection,WindDirectionDegrees,WindSpeedMPH,WindSpeedGustMPH,Humidity,HourlyPrecipIn,Conditions,Clouds,dailyrainin,SoftwareType,DateUTC
2013-04-04 00:11:00,20.1,15.0,30.35,WNW,283,0.0,0.0,80,0.00,,,0.00,weatherlink.com 1.10,2013-04-04 04:11:00,
2013-04-04 00:26:00,19.5,15.0,30.35,WNW,283,0.0,0.0,81,0.00,,,0.00,weatherlink.com 1.10,2013-04-04 04:26:00,
2013-04-04 00:41:00,19.0,14.0,30.36,WNW,283,0.0,0.0,81,0.00,,,0.00,weatherlink.com 1.10,2013-04-04 04:41:00,
2013-04-04 00:56:00,18.8,14.0,30.36,North,11,0.0,0.0,82,0.00,,,0.00,weatherlink.com 1.10,2013-04-04 04:56:00,
2013-04-04 01:11:00,18.2,14.0,30.36,North,11,0.0,0.0,83,0.00,,,0.00,weatherlink.com 1.10,2013-04-04 05:11:00,
2013-04-04 01:26:00,18.1,14.0,30.36,North,10,0.0,0.0,84,0.00,,,0.00,weatherlink.com 1.10,2013-04-04 05:26:00,
2013-04-04 01:43:00,17.6,14.0,30.36,North,11,0.0,0.0,84,0.00,,,0.00,weatherlink.com 1.10,2013-04-04 05:43:00,
2013-04-04 01:56:00,16.9,13.0,30.35,North,10,0.0,0.0,84,0.00,,,0.00,weatherlink.com 1.10,2013-04-04 05:56:00,
2013-04-04 02:11:00,16.7,13.0,30.35,North,11,0.0,0.0,85,0.00,,,0.00,weatherlink.com 1.10,2013-04-04 06:11:00,
2013-04-04 02:26:00,16.7,13.0,30.34,North,10,0.0,0.0,85,0.00,,,0.00,weatherlink.com 1.10,2013-04-04 06:26:00,
2013-04-04 02:41:00,16.2,13.0,30.34,North,11,0.0,0.0,85,0.00,,,0.00,weatherlink.com 1.10,2013-04-04 06:41:00,
2013-04-04 02:56:00,16.0,13.0,30.34,North,11,0.0,0.0,86,0.00,,,0.00,weatherlink.com 1.10,2013-04-04 06:56:00,
2013-04-04 03:11:00,15.9,13.0,30.34,WSW,252,0.0,0.0,86,0.00,,,0.00,weatherlink.com 1.10,2013-04-04 07:11:00,
2013-04-04 03:26:00,15.7,12.0,30.34,WSW,252,0.0,0.0,86,0.00,,,0.00,weatherlink.com 1.10,2013-04-04 07:26:00,
2013-04-04 03:41:00,15.4,12.0,30.34,West,277,0.0,0.0,86,0.00,,,0.00,weatherlink.com 1.10,2013-04-04 07:41:00,
2013-04-04 03:56:00,15.3,12.0,30.34,West,263,0.0,1.0,87,0.00,,,0.00,weatherlink.com 1.10,2013-04-04 07:56:00,
2013-04-04 04:11:00,15.3,12.0,30.34,West,263,0.0,0.0,87,0.00,,,0.00,weatherlink.com 1.10,2013-04-04 08:11:00,
2013-04-04 04:27:00,14.7,12.0,30.34,West,263,0.0,0.0,87,0.00,,,0.00,weatherlink.com 1.10,2013-04-04 08:27:00,
2013-04-04 04:42:00,14.9,12.0,30.33,West,263,0.0,0.0,87,0.00,,,0.00,weatherlink.com 1.10,2013-04-04 08:42:00,
2013-04-04 04:57:00,14.8,12.0,30.34,West,263,0.0,0.0,88,0.00,,,0.00,weatherlink.com 1.10,2013-04-04 08:57:00,
2013-04-04 05:12:00,15.0,12.0,30.34,WSW,248,0.0,1.0,88,0.00,,,0.00,weatherlink.com 1.10,2013-04-04 09:12:00,
2013-04-04 05:27:00,15.2,12.0,30.35,WNW,282,0.0,1.0,88,0.00,,,0.00,weatherlink.com 1.10,2013-04-04 09:27:00,
2013-04-04 05:42:00,15.2,12.0,30.35,North,1,0.0,0.0,88,0.00,,,0.00,weatherlink.com 1.10,2013-04-04 09:42:00,
2013-04-04 05:57:00,14.9,12.0,30.34,WSW,245,0.0,0.0,88,0.00,,,0.00,weatherlink.com 1.10,2013-04-04 09:57:00,
2013-04-04 06:12:00,14.3,11.0,30.34,WSW,243,0.0,0.0,88,0.00,,,0.00,weatherlink.com 1.10,2013-04-04 10:12:00,
2013-04-04 06:27:00,14.4,12.0,30.35,WSW,245,0.0,0.0,88,0.00,,,0.00,weatherlink.com 1.10,2013-04-04 10:27:00,
2013-04-04 06:42:00,14.9,12.0,30.34,WSW,240,0.0,1.0,89,0.00,,,0.00,weatherlink.com 1.10,2013-04-04 10:42:00,
2013-04-04 06:57:00,14.8,12.0,30.33,West,264,0.0,1.0,88,0.00,,,0.00,weatherlink.com 1.10,2013-04-04 10:57:00,
2013-04-04 07:12:00,14.6,12.0,30.33,West,264,0.0,0.0,88,0.00,,,0.00,weatherlink.com 1.10,2013-04-04 11:12:00,
2013-04-04 07:27:00,15.1,13.0,30.32,West,264,0.0,0.0,89,0.00,,,0.00,weatherlink.com 1.10,2013-04-04 11:27:00,
2013-04-04 07:42:00,16.4,14.0,30.31,West,264,0.0,0.0,90,0.00,,,0.00,weatherlink.com 1.10,2013-04-04 11:42:00,
2013-04-04 07:57:00,18.6,16.0,30.30,West,264,0.0,0.0,91,0.00,,,0.00,weatherlink.com 1.10,2013-04-04 11:57:00,
2013-04-04 08:15:00,20.9,18.0,30.29,West,264,0.0,1.0,89,0.00,,,0.00,weatherlink.com 1.10,2013-04-04 12:15:00,
2013-04-04 08:27:00,23.7,20.0,30.28,ENE,58,0.0,1.0,86,0.00,,,0.00,weatherlink.com 1.10,2013-04-04 12:27:00,
2013-04-04 08:42:00,26.7,21.0,30.29,ESE,113,0.0,1.0,78,0.00,,,0.00,weatherlink.com 1.10,2013-04-04 12:42:00,
2013-04-04 08:58:00,28.2,21.0,30.29,East,82,0.0,1.0,73,0.00,,,0.00,weatherlink.com 1.10,2013-04-04 12:58:00,
2013-04-04 09:12:00,28.9,20.0,30.28,NNE,24,3.0,4.0,69,0.00,,,0.00,weatherlink.com 1.10,2013-04-04 13:12:00,
2013-04-04 09:27:00,29.7,20.0,30.27,East,96,0.0,3.0,66,0.00,,,0.00,weatherlink.com 1.10,2013-04-04 13:27:00,
2013-04-04 09:42:00,31.3,19.0,30.26,SE,124,1.0,2.0,60,0.00,,,0.00,weatherlink.com 1.10,2013-04-04 13:42:00,
2013-04-04 09:57:00,32.5,19.0,30.25,ESE,112,0.0,2.0,57,0.00,,,0.00,weatherlink.com 1.10,2013-04-04 13:57:00,
2013-04-04 10:15:00,34.3,18.0,30.25,East,93,2.0,3.0,51,0.00,,,0.00,weatherlink.com 1.10,2013-04-04 14:15:00,
2013-04-04 10:27:00,35.1,16.0,30.24,East,79,1.0,4.0,46,0.00,,,0.00,weatherlink.com 1.10,2013-04-04 14:27:00,
2013-04-04 10:43:00,36.3,15.0,30.24,East,82,0.0,4.0,42,0.00,,,0.00,weatherlink.com 1.10,2013-04-04 14:43:00,
2013-04-04 10:58:00,38.0,12.0,30.23,NNE,27,4.0,4.0,35,0.00,,,0.00,weatherlink.com 1.10,2013-04-04 14:58:00,
2013-04-04 11:13:00,39.3,10.0,30.23,East,91,2.0,5.0,30,0.00,,,0.00,weatherlink.com 1.10,2013-04-04 15:13:00,
2013-04-04 11:28:00,41.6,11.0,30.21,ESE,110,2.0,4.0,29,0.00,,,0.00,weatherlink.com 1.10,2013-04-04 15:28:00,
2013-04-04 11:43:00,43.0,8.0,30.21,ESE,105,0.0,4.0,24,0.00,,,0.00,weatherlink.com 1.10,2013-04-04 15:43:00,
2013-04-04 11:58:00,44.3,9.0,30.20,ESE,108,2.0,6.0,24,0.00,,,0.00,weatherlink.com 1.10,2013-04-04 15:58:00,
2013-04-04 12:13:00,44.3,6.0,30.19,ESE,122,0.0,6.0,21,0.00,,,0.00,weatherlink.com 1.10,2013-04-04 16:13:00,
2013-04-04 12:28:00,45.7,10.0,30.18,SSE,150,0.0,5.0,23,0.00,,,0.00,weatherlink.com 1.10,2013-04-04 16:28:00,
2013-04-04 12:43:00,46.6,9.0,30.16,East,91,2.0,5.0,22,0.00,,,0.00,weatherlink.com 1.10,2013-04-04 16:43:00,
2013-04-04 12:58:00,48.7,12.0,30.15,NNW,347,1.0,6.0,23,0.00,,,0.00,weatherlink.com 1.10,2013-04-04 16:58:00,
2013-04-04 14:44:00,53.6,11.0,30.09,WSW,245,7.0,8.0,18,0.00,,,0.00,weatherlink.com 1.10,2013-04-04 18:44:00,
2013-04-04 15:14:00,53.0,8.0,30.08,East,79,6.0,9.0,16,0.00,,,0.00,weatherlink.com 1.10,2013-04-04 19:14:00,
2013-04-04 15:29:00,52.9,8.0,30.07,NE,41,2.0,6.0,16,0.00,,,0.00,weatherlink.com 1.10,2013-04-04 19:29:00,
2013-04-04 16:02:00,53.1,8.0,30.05,NE,54,5.0,7.0,16,0.00,,,0.00,weatherlink.com 1.10,2013-04-04 20:02:00,
2013-04-04 16:14:00,53.2,8.0,30.04,ESE,108,2.0,6.0,16,0.00,,,0.00,weatherlink.com 1.10,2013-04-04 20:14:00,
2013-04-04 16:29:00,52.8,9.0,30.03,East,86,4.0,8.0,17,0.00,,,0.00,weatherlink.com 1.10,2013-04-04 20:29:00,
2013-04-04 16:45:00,53.0,8.0,30.03,ESE,109,1.0,8.0,16,0.00,,,0.00,weatherlink.com 1.10,2013-04-04 20:45:00,
2013-04-04 16:59:00,52.8,8.0,30.03,East,83,3.0,6.0,16,0.00,,,0.00,weatherlink.com 1.10,2013-04-04 20:59:00,
2013-04-04 17:14:00,52.9,11.0,30.02,East,98,1.0,3.0,19,0.00,,,0.00,weatherlink.com 1.10,2013-04-04 21:14:00,
2013-04-04 17:29:00,51.9,9.0,30.02,ENE,68,5.0,5.0,18,0.00,,,0.00,weatherlink.com 1.10,2013-04-04 21:29:00,
2013-04-04 17:44:00,51.0,11.0,30.01,East,80,3.0,7.0,20,0.00,,,0.00,weatherlink.com 1.10,2013-04-04 21:44:00,
2013-04-04 17:59:00,50.7,13.0,30.01,ESE,117,0.0,7.0,22,0.00,,,0.00,weatherlink.com 1.10,2013-04-04 21:59:00,
2013-04-04 18:14:00,50.1,13.0,30.02,ENE,57,2.0,5.0,23,0.00,,,0.00,weatherlink.com 1.10,2013-04-04 22:14:00,
2013-04-04 18:29:00,49.3,15.0,30.02,North,350,0.0,4.0,25,0.00,,,0.00,weatherlink.com 1.10,2013-04-04 22:29:00,
2013-04-04 18:44:00,48.7,15.0,30.02,South,174,0.0,2.0,26,0.00,,,0.00,weatherlink.com 1.10,2013-04-04 22:44:00,
2013-04-04 18:59:00,48.0,14.0,30.02,WSW,252,1.0,1.0,26,0.00,,,0.00,weatherlink.com 1.10,2013-04-04 22:59:00,
2013-04-04 19:14:00,47.4,15.0,30.01,NNE,27,0.0,1.0,27,0.00,,,0.00,weatherlink.com 1.10,2013-04-04 23:14:00,
2013-04-04 19:29:00,46.8,16.0,30.00,SE,129,0.0,3.0,29,0.00,,,0.00,weatherlink.com 1.10,2013-04-04 23:29:00,
2013-04-04 19:44:00,45.8,17.0,30.00,SSW,211,0.0,0.0,32,0.00,,,0.00,weatherlink.com 1.10,2013-04-04 23:44:00,
2013-04-04 19:59:00,44.6,21.0,30.00,SSW,210,0.0,0.0,39,0.00,,,0.00,weatherlink.com 1.10,2013-04-04 23:59:00,
2013-04-04 20:14:00,43.0,24.0,29.99,SSW,210,0.0,1.0,47,0.00,,,0.00,weatherlink.com 1.10,2013-04-05 00:14:00,
2013-04-04 20:44:00,40.8,23.0,29.99,SSW,210,0.0,0.0,50,0.00,,,0.00,weatherlink.com 1.10,2013-04-05 00:44:00,
2013-04-04 20:59:00,39.9,25.0,29.99,SSW,210,0.0,0.0,55,0.00,,,0.00,weatherlink.com 1.10,2013-04-05 00:59:00,
2013-04-04 21:14:00,39.2,25.0,29.99,SSW,210,0.0,0.0,58,0.00,,,0.00,weatherlink.com 1.10,2013-04-05 01:14:00,
2013-04-04 21:29:00,38.4,26.0,29.99,SSW,210,0.0,1.0,61,0.00,,,0.00,weatherlink.com 1.10,2013-04-05 01:29:00,
2013-04-04 21:44:00,37.5,26.0,29.99,SSW,210,0.0,0.0,64,0.00,,,0.00,weatherlink.com 1.10,2013-04-05 01:44:00,
2013-04-04 21:59:00,36.7,25.0,29.99,SSW,210,0.0,0.0,64,0.00,,,0.00,weatherlink.com 1.10,2013-04-05 01:59:00,
2013-04-04 22:14:00,35.7,24.0,29.98,SSW,210,0.0,1.0,62,0.00,,,0.00,weatherlink.com 1.10,2013-04-05 02:14:00,
2013-04-04 22:29:00,35.2,25.0,29.98,SSW,210,0.0,0.0,67,0.00,,,0.00,weatherlink.com 1.10,2013-04-05 02:29:00,
2013-04-04 22:44:00,34.7,25.0,29.97,SSW,210,0.0,0.0,69,0.00,,,0.00,weatherlink.com 1.10,2013-04-05 02:44:00,
2013-04-04 22:59:00,34.2,26.0,29.96,SSW,210,0.0,0.0,71,0.00,,,0.00,weatherlink.com 1.10,2013-04-05 02:59:00,
2013-04-04 23:14:00,33.5,25.0,29.96,SSW,210,0.0,0.0,72,0.00,,,0.00,weatherlink.com 1.10,2013-04-05 03:14:00,
2013-04-04 23:29:00,32.9,25.0,29.96,SSW,210,0.0,0.0,73,0.00,,,0.00,weatherlink.com 1.10,2013-04-05 03:29:00,
2013-04-04 23:44:00,32.3,25.0,29.95,SSW,210,0.0,0.0,74,0.00,,,0.00,weatherlink.com 1.10,2013-04-05 03:44:00,
2013-04-04 23:59:00,31.8,25.0,29.95,SSW,210,0.0,0.0,75,0.00,,,0.00,weatherlink.com 1.10,2013-04-05 03:59:00,